World > North America > United States > New Jersey

Elberon Park, New Jersey Regional Weather

Lat: 40.26N, Lon: 74.01W
Wx Zone: NJZ014
Feedback

Elberon Park, NJ Regional Weather

Expires:201910141300;;694505
ASUS41 KPHI 141212
RWRPHI

REGIONAL WEATHER ROUNDUP
NATIONAL WEATHER SERVICE MOUNT HOLLY NJ
800 AM EDT MON OCT 14 2019

NOTE:  "FAIR" INDICATES FEW OR NO CLOUDS BELOW 12,000 FEET WITH NO
SIGNIFICANT WEATHER AND/OR OBSTRUCTIONS TO VISIBILITY.

 * = STATION DOES NOT REPORT PRECIPITATION (E.G. RAIN, SNOW, ETC.) 
        OR FOG.


NJZ001>014-141300-
NORTHERN NEW JERSEY
  
CITY           SKY/WX    TMP DP  RH WIND       PRES   REMARKS
SUSSEX         CLOUDY    51  48  89 CALM      29.99F                  
ANDOVER*         N/A     54  52  93 CALM      30.00R                  
MORRISTOWN     MOCLDY    55  55 100 CALM      30.00R                  
NEWARK         CLOUDY    60  55  83 W3        29.99R                  
TETERBORO      CLOUDY    60  53  77 CALM      29.98S                  
CALDWELL       CLOUDY    59  54  83 SE3       30.00S                  
SOMERVILLE     CLOUDY    55  53  93 MISG      29.99R                  
ALLAIRE*       CLOUDY    57  56  96 NW5       30.01R                  
TOMS RIVER*    CLOUDY   N/A N/A N/A MISG      30.00R                  

$$

SKY/WX - Weather  TMP - Temperature  DP - Dew Point  RH - Relative Humidity
WIND - Wind Direction/Speed PRES - Barometric Pressure VSB - Visibility
WCI - Wind Chill Index E13G22 Wind - East Wind 13 mph/Gusts of 22 mph